JZR295 OKKK-OMDB

Flight info

Callsign JZR295
Flight time N/A
Altitude 29000
Route BOXIK B416 IMDOX DCT LONOS DCT ORGEL DCT DATEN DCT GETAL DCT DAVRI DCT DANOB DCT ASPAK DCT NALPO DCT SOKAK DCT KIVUS DCT PUSOT DCT AMBOV Q322 DATOB
Aircraft A320/M-SDE3FGHIRWY/LB1

Departure

Time N/A
Airport Kuwait International Airport (OKKK)

Arrival

Time 2026-04-22 19:54
Airport Dubai International Airport (OMDB)
Time Latitude Longitude Altitude Speed Heading
2026-04-22 19:14 26.63237 51.53652 28863 ft 494 kts 112°
2026-04-22 19:14 26.62079 51.57268 28839 ft 494 kts 112°
2026-04-22 19:15 26.60159 51.63260 28842 ft 492 kts 112°
2026-04-22 19:15 26.57441 51.71608 28845 ft 491 kts 113°
2026-04-22 19:16 26.55079 51.78777 28844 ft 491 kts 113°
2026-04-22 19:16 26.52722 51.85932 28833 ft 490 kts 113°
2026-04-22 19:17 26.50382 51.93086 28829 ft 490 kts 112°
2026-04-22 19:17 26.48035 52.00235 28808 ft 490 kts 112°
2026-04-22 19:18 26.45679 52.07365 28805 ft 489 kts 112°
2026-04-22 19:18 26.43320 52.14479 28806 ft 487 kts 112°
2026-04-22 19:19 26.41369 52.20388 28806 ft 487 kts 112°
2026-04-22 19:19 26.38621 52.28629 28808 ft 487 kts 113°
2026-04-22 19:20 26.36624 52.34512 28798 ft 487 kts 113°
2026-04-22 19:20 26.34223 52.41570 28797 ft 487 kts 113°
2026-04-22 19:21 26.31826 52.48616 28795 ft 486 kts 113°
2026-04-22 19:21 26.29426 52.55676 28799 ft 487 kts 113°
2026-04-22 19:22 26.27020 52.62731 28802 ft 487 kts 113°
2026-04-22 19:22 26.25814 52.66259 28631 ft 487 kts 113°
2026-04-22 19:22 26.24625 52.69735 28373 ft 487 kts 112°
2026-04-22 19:22 26.23424 52.73258 28265 ft 486 kts 112°
2026-04-22 19:23 26.22226 52.76779 28080 ft 486 kts 112°
2026-04-22 19:23 26.21027 52.80295 27877 ft 485 kts 112°
2026-04-22 19:23 26.19828 52.83799 27833 ft 485 kts 113°
2026-04-22 19:23 26.18622 52.87308 27843 ft 485 kts 113°
2026-04-22 19:24 26.17413 52.90823 27843 ft 485 kts 113°
2026-04-22 19:24 26.16203 52.94336 27841 ft 485 kts 113°
2026-04-22 19:24 26.14998 52.97843 27841 ft 485 kts 113°
2026-04-22 19:24 26.13795 53.01352 27847 ft 485 kts 113°
2026-04-22 19:25 26.12583 53.04874 27839 ft 487 kts 113°
2026-04-22 19:25 26.11385 53.08348 27830 ft 486 kts 112°
2026-04-22 19:25 26.10174 53.11851 27839 ft 485 kts 112°
2026-04-22 19:25 26.08961 53.15357 27831 ft 485 kts 112°
2026-04-22 19:26 26.07747 53.18863 27587 ft 485 kts 112°
2026-04-22 19:26 26.06535 53.22359 27328 ft 484 kts 112°
2026-04-22 19:26 26.05327 53.25847 27069 ft 482 kts 113°
2026-04-22 19:26 26.04125 53.29320 26827 ft 480 kts 113°
2026-04-22 19:27 26.02924 53.32784 26581 ft 479 kts 113°
2026-04-22 19:27 26.01728 53.36230 26329 ft 477 kts 113°
2026-04-22 19:27 26.00532 53.39662 26085 ft 475 kts 113°
2026-04-22 19:27 25.99341 53.43074 25864 ft 473 kts 113°
2026-04-22 19:28 25.98154 53.46475 25822 ft 472 kts 113°
2026-04-22 19:28 25.96967 53.49878 25830 ft 472 kts 113°
2026-04-22 19:28 25.95780 53.53285 25834 ft 472 kts 113°
2026-04-22 19:28 25.94593 53.56692 25829 ft 472 kts 113°
2026-04-22 19:29 25.93422 53.60057 25828 ft 472 kts 113°
2026-04-22 19:29 25.92237 53.63458 25832 ft 472 kts 113°
2026-04-22 19:29 25.91049 53.66858 25833 ft 472 kts 113°
2026-04-22 19:29 25.89857 53.70256 25825 ft 472 kts 113°
2026-04-22 19:30 25.89064 53.72510 25714 ft 472 kts 114°
2026-04-22 19:30 25.87471 53.77040 25394 ft 469 kts 113°
2026-04-22 19:30 25.86287 53.80405 25159 ft 467 kts 114°
2026-04-22 19:30 25.85109 53.83753 24923 ft 465 kts 114°
2026-04-22 19:31 25.83934 53.87093 24679 ft 462 kts 113°
2026-04-22 19:31 25.82767 53.90413 24450 ft 460 kts 113°
2026-04-22 19:31 25.81603 53.93718 24223 ft 459 kts 114°
2026-04-22 19:31 25.80457 53.96973 23995 ft 457 kts 114°
2026-04-22 19:32 25.79303 54.00248 23813 ft 456 kts 114°
2026-04-22 19:32 25.78150 54.03521 23825 ft 455 kts 114°
2026-04-22 19:32 25.76992 54.06791 23827 ft 455 kts 114°
2026-04-22 19:32 25.75833 54.10061 23827 ft 455 kts 114°
2026-04-22 19:33 25.74674 54.13326 23827 ft 455 kts 114°
2026-04-22 19:33 25.73512 54.16595 23825 ft 456 kts 114°
2026-04-22 19:33 25.72347 54.19870 23825 ft 456 kts 114°
2026-04-22 19:33 25.71187 54.23138 23824 ft 455 kts 114°
2026-04-22 19:34 25.70025 54.26412 23823 ft 455 kts 114°
2026-04-22 19:34 25.68866 54.29671 23824 ft 455 kts 114°
2026-04-22 19:34 25.67702 54.32939 23821 ft 455 kts 114°
2026-04-22 19:34 25.66537 54.36205 23822 ft 455 kts 114°
2026-04-22 19:35 25.65375 54.39467 23822 ft 455 kts 114°
2026-04-22 19:35 25.64210 54.42737 23531 ft 457 kts 114°
2026-04-22 19:35 25.63056 54.45970 22157 ft 457 kts 114°
2026-04-22 19:35 25.61886 54.49239 20886 ft 453 kts 114°
2026-04-22 19:36 25.60730 54.52465 19769 ft 446 kts 114°
2026-04-22 19:36 25.59597 54.55629 18738 ft 438 kts 114°
2026-04-22 19:36 25.58480 54.58745 17714 ft 430 kts 114°
2026-04-22 19:36 25.57386 54.61798 16711 ft 421 kts 114°
2026-04-22 19:37 25.56338 54.64728 16453 ft 394 kts 114°
2026-04-22 19:37 25.55368 54.67450 16321 ft 367 kts 114°
2026-04-22 19:37 25.54460 54.69992 16183 ft 343 kts 114°
2026-04-22 19:37 25.53606 54.72375 16005 ft 323 kts 115°
2026-04-22 19:38 25.52793 54.74632 15485 ft 318 kts 115°
2026-04-22 19:38 25.51974 54.76891 14971 ft 314 kts 115°
2026-04-22 19:38 25.51162 54.79118 14453 ft 310 kts 116°
2026-04-22 19:38 25.50332 54.81300 13952 ft 305 kts 117°
2026-04-22 19:39 25.49490 54.83450 13437 ft 302 kts 117°
2026-04-22 19:39 25.48655 54.85565 12875 ft 298 kts 117°
2026-04-22 19:39 25.47828 54.87662 12302 ft 296 kts 117°
2026-04-22 19:39 25.47011 54.89740 11740 ft 293 kts 117°
2026-04-22 19:40 25.46202 54.91804 11194 ft 290 kts 117°
2026-04-22 19:40 25.45424 54.93799 11065 ft 285 kts 117°
2026-04-22 19:40 25.44628 54.95815 10975 ft 285 kts 121°
2026-04-22 19:40 25.43662 54.97722 10827 ft 283 kts 124°
2026-04-22 19:41 25.42678 54.99611 10676 ft 284 kts 124°
2026-04-22 19:41 25.41697 55.01499 10515 ft 282 kts 124°
2026-04-22 19:41 25.40720 55.03378 10362 ft 282 kts 124°
2026-04-22 19:41 25.39745 55.05256 10209 ft 281 kts 124°
2026-04-22 19:42 25.38773 55.07125 10055 ft 280 kts 124°
2026-04-22 19:42 25.37802 55.08992 9898 ft 279 kts 124°
2026-04-22 19:42 25.36844 55.10853 9748 ft 279 kts 121°
2026-04-22 19:42 25.36183 55.12884 9588 ft 284 kts 104°
2026-04-22 19:43 25.35991 55.17265 9269 ft 286 kts 94°
2026-04-22 19:43 25.35947 55.19462 9108 ft 286 kts 94°
2026-04-22 19:43 25.35900 55.21656 8954 ft 285 kts 94°
2026-04-22 19:44 25.35852 55.23851 8797 ft 285 kts 94°
2026-04-22 19:44 25.35805 55.26041 8646 ft 284 kts 94°
2026-04-22 19:44 25.35759 55.28225 8484 ft 284 kts 94°
2026-04-22 19:44 25.35716 55.30355 8357 ft 275 kts 94°
2026-04-22 19:45 25.35515 55.32394 8238 ft 259 kts 109°
2026-04-22 19:45 25.34831 55.34169 8103 ft 246 kts 126°
2026-04-22 19:45 25.33927 55.35768 7972 ft 246 kts 126°
2026-04-22 19:45 25.33004 55.37412 7185 ft 259 kts 125°
2026-04-22 19:46 25.32027 55.39155 6210 ft 275 kts 125°
2026-04-22 19:46 25.30994 55.41002 5104 ft 290 kts 123°
2026-04-22 19:46 25.29906 55.42954 4028 ft 301 kts 122°
2026-04-22 19:46 25.28838 55.44879 3473 ft 287 kts 122°
2026-04-22 19:47 25.27775 55.46795 2543 ft 293 kts 122°
2026-04-22 19:47 25.26741 55.48658 2234 ft 272 kts 121°
2026-04-22 19:47 25.25797 55.50358 2113 ft 247 kts 121°
2026-04-22 19:47 25.24938 55.51900 2012 ft 225 kts 121°
2026-04-22 19:48 25.24133 55.53342 1972 ft 217 kts 122°
2026-04-22 19:48 25.23347 55.54754 1969 ft 214 kts 122°
2026-04-22 19:48 25.22535 55.56132 1963 ft 213 kts 132°
2026-04-22 19:48 25.21364 55.57062 1965 ft 203 kts 160°
2026-04-22 19:49 25.19995 55.57257 1968 ft 196 kts 186°
2026-04-22 19:49 25.18689 55.56885 1994 ft 188 kts 205°
2026-04-22 19:49 25.17678 55.56115 1977 ft 172 kts 224°
2026-04-22 19:49 25.16998 55.55099 1958 ft 158 kts 241°
2026-04-22 19:50 25.16650 55.53974 1958 ft 154 kts 259°
2026-04-22 19:50 25.16608 55.52803 1964 ft 153 kts 275°
2026-04-22 19:50 25.16867 55.51676 1970 ft 150 kts 294°
2026-04-22 19:50 25.17372 55.50684 1969 ft 148 kts 302°
2026-04-22 19:51 25.17907 55.49721 1984 ft 146 kts 302°
2026-04-22 19:51 25.18438 55.48765 1872 ft 145 kts 302°
2026-04-22 19:51 25.18966 55.47815 1709 ft 145 kts 303°
2026-04-22 19:51 25.19493 55.46867 1544 ft 144 kts 302°
2026-04-22 19:52 25.20018 55.45924 1356 ft 144 kts 303°
2026-04-22 19:52 25.20540 55.44984 1183 ft 143 kts 302°
2026-04-22 19:52 25.21060 55.44047 995 ft 142 kts 303°
2026-04-22 19:52 25.21568 55.43134 820 ft 141 kts 302°
2026-04-22 19:53 25.22079 55.42218 659 ft 139 kts 303°
2026-04-22 19:53 25.22585 55.41309 427 ft 138 kts 301°
2026-04-22 19:53 25.23073 55.40399 249 ft 138 kts 302°
2026-04-22 19:53 25.23578 55.39501 85 ft 138 kts 302°
2026-04-22 19:54 25.24047 55.38641 27 ft 119 kts 303°
2026-04-22 19:54 25.24434 55.37972 22 ft 85 kts 302°
2026-04-22 19:54 25.24674 55.37551 22 ft 28 kts 302°
2026-04-22 19:54 25.24746 55.37404 22 ft 23 kts 292°
2026-04-22 19:55 25.24787 55.37230 22 ft 25 kts 272°
2026-04-22 19:55 25.24787 55.37033 22 ft 27 kts 272°
2026-04-22 19:55 25.24810 55.36824 22 ft 28 kts 283°
2026-04-22 19:55 25.24905 55.36628 22 ft 30 kts 302°
2026-04-22 19:56 25.25018 55.36433 22 ft 31 kts 301°
2026-04-22 19:56 25.25133 55.36227 23 ft 32 kts 300°
2026-04-22 19:56 25.25247 55.36018 23 ft 29 kts 302°
2026-04-22 19:56 25.25357 55.35824 22 ft 30 kts 302°
2026-04-22 19:57 25.25468 55.35620 22 ft 32 kts 301°
2026-04-22 19:57 25.25584 55.35411 22 ft 30 kts 302°
2026-04-22 19:57 25.25691 55.35219 24 ft 27 kts 301°
2026-04-22 19:57 25.25785 55.35040 22 ft 27 kts 298°
2026-04-22 19:58 25.25887 55.34857 22 ft 29 kts 302°
2026-04-22 19:58 25.25944 55.34701 24 ft 13 kts 241°
2026-04-22 19:58 25.25907 55.34642 22 ft 9 kts 284°
2026-04-22 19:58 25.25884 55.34601 22 ft 0 kts 211°
2026-04-22 20:00 25.25834 55.34567 22 ft 2 kts 211°
2026-04-22 20:00 25.25847 55.34576 21 ft 1 kts 211°
2026-04-22 20:01 25.25843 55.34573 22 ft 0 kts 210°